Time,TemperatureF,DewpointF,PressureIn,WindDirection,WindDirectionDegrees,WindSpeedMPH,WindSpeedGustMPH,Humidity,HourlyPrecipIn,Conditions,Clouds,dailyrainin,SolarRadiationWatts/m^2,SoftwareType,DateUTC
2013-04-16 00:03:00,53.0,45.0,-100.00,South,180,10.0,21.0,73,0.00,,,0.00,0.000000,,2013-04-16 04:03:00,
2013-04-16 00:33:00,52.0,45.0,-100.00,South,186,11.0,21.0,78,0.00,,,0.00,0.000000,,2013-04-16 04:33:00,
2013-04-16 00:42:00,52.0,45.0,-100.00,South,186,11.0,21.0,78,0.00,,,0.00,0.000000,,2013-04-16 04:42:00,
2013-04-16 00:53:00,52.0,45.0,-100.00,South,186,11.0,21.0,78,0.00,,,0.00,0.000000,,2013-04-16 04:53:00,
2013-04-16 01:03:00,52.0,45.0,-100.00,South,186,11.0,21.0,78,0.00,,,0.00,0.000000,,2013-04-16 05:03:00,
2013-04-16 01:32:00,52.0,47.0,-100.00,SSW,192,12.0,22.0,84,0.00,,,0.00,0.000000,,2013-04-16 05:32:00,
2013-04-16 01:42:00,52.0,47.0,-100.00,SSW,192,12.0,22.0,84,0.00,,,0.00,0.000000,,2013-04-16 05:42:00,
2013-04-16 01:52:00,52.0,47.0,-100.00,SSW,192,12.0,22.0,84,0.00,,,0.00,0.000000,,2013-04-16 05:52:00,
2013-04-16 02:02:00,52.0,47.0,-100.00,SSW,192,12.0,22.0,84,0.00,,,0.00,0.000000,,2013-04-16 06:02:00,
2013-04-16 02:32:00,51.0,48.0,-100.00,South,179,11.0,24.0,88,0.00,,,0.00,0.000000,,2013-04-16 06:32:00,
2013-04-16 02:42:00,51.0,48.0,-100.00,South,179,11.0,24.0,88,0.00,,,0.00,0.000000,,2013-04-16 06:42:00,
2013-04-16 02:52:00,51.0,48.0,-100.00,South,179,11.0,24.0,88,0.00,,,0.00,0.000000,,2013-04-16 06:52:00,
2013-04-16 03:02:00,51.0,48.0,-100.00,South,179,11.0,24.0,88,0.00,,,0.00,0.000000,,2013-04-16 07:02:00,
2013-04-16 03:32:00,51.0,48.0,-100.00,South,180,11.0,19.0,91,0.00,,,0.00,0.000000,,2013-04-16 07:32:00,
2013-04-16 03:42:00,51.0,48.0,-100.00,South,180,11.0,19.0,91,0.00,,,0.00,0.000000,,2013-04-16 07:42:00,
2013-04-16 03:53:00,51.0,48.0,-100.00,South,180,11.0,19.0,91,0.00,,,0.00,0.000000,,2013-04-16 07:53:00,
2013-04-16 04:02:00,51.0,48.0,-100.00,South,180,11.0,19.0,91,0.00,,,0.00,0.000000,,2013-04-16 08:02:00,
2013-04-16 04:32:00,51.0,49.0,-100.00,South,177,9.0,17.0,92,0.00,,,0.00,0.000000,,2013-04-16 08:32:00,
2013-04-16 04:42:00,51.0,49.0,-100.00,South,177,9.0,17.0,92,0.00,,,0.00,0.000000,,2013-04-16 08:42:00,
2013-04-16 04:52:00,51.0,49.0,-100.00,South,177,9.0,17.0,92,0.00,,,0.00,0.000000,,2013-04-16 08:52:00,
2013-04-16 05:02:00,51.0,49.0,-100.00,South,177,9.0,17.0,92,0.00,,,0.00,0.000000,,2013-04-16 09:02:00,
2013-04-16 05:33:00,51.0,49.0,-100.00,South,175,10.0,20.0,92,0.00,,,0.00,0.000000,,2013-04-16 09:33:00,
2013-04-16 05:43:00,51.0,49.0,-100.00,South,175,10.0,20.0,92,0.00,,,0.00,0.000000,,2013-04-16 09:43:00,
2013-04-16 05:53:00,51.0,49.0,-100.00,South,175,10.0,20.0,92,0.00,,,0.00,0.000000,,2013-04-16 09:53:00,
2013-04-16 06:03:00,51.0,49.0,-100.00,South,175,10.0,20.0,92,0.00,,,0.00,0.000000,,2013-04-16 10:03:00,
2013-04-16 06:33:00,51.0,49.0,-100.00,South,181,10.0,17.0,94,0.00,,,0.00,0.000000,,2013-04-16 10:33:00,
2013-04-16 06:43:00,51.0,49.0,-100.00,South,181,10.0,17.0,94,0.00,,,0.00,0.000000,,2013-04-16 10:43:00,
2013-04-16 06:53:00,51.0,49.0,-100.00,South,181,10.0,17.0,94,0.00,,,0.00,0.000000,,2013-04-16 10:53:00,
2013-04-16 07:03:00,51.0,49.0,-100.00,South,181,10.0,17.0,94,0.00,,,0.00,0.000000,,2013-04-16 11:03:00,
2013-04-16 07:32:00,52.0,50.0,-100.00,South,189,11.0,19.0,93,0.00,,,0.00,6.000000,,2013-04-16 11:32:00,
2013-04-16 07:42:00,52.0,50.0,-100.00,South,189,11.0,19.0,93,0.00,,,0.00,6.000000,,2013-04-16 11:42:00,
2013-04-16 07:53:00,52.0,50.0,-100.00,South,189,11.0,19.0,93,0.00,,,0.00,6.000000,,2013-04-16 11:53:00,
2013-04-16 08:02:00,52.0,50.0,-100.00,South,189,11.0,19.0,93,0.00,,,0.00,6.000000,,2013-04-16 12:02:00,
2013-04-16 08:32:00,52.0,49.0,-100.00,South,186,12.0,20.0,91,0.00,,,0.00,43.000000,,2013-04-16 12:32:00,
2013-04-16 08:42:00,52.0,49.0,-100.00,South,186,12.0,20.0,91,0.00,,,0.00,43.000000,,2013-04-16 12:42:00,
2013-04-16 08:52:00,52.0,49.0,-100.00,South,186,12.0,20.0,91,0.00,,,0.00,43.000000,,2013-04-16 12:52:00,
2013-04-16 09:02:00,52.0,49.0,-100.00,South,186,12.0,20.0,91,0.00,,,0.00,43.000000,,2013-04-16 13:02:00,
2013-04-16 09:32:00,53.0,51.0,-100.00,South,191,10.0,19.0,92,0.00,,,0.00,82.000000,,2013-04-16 13:32:00,
2013-04-16 09:42:00,53.0,51.0,-100.00,South,191,10.0,19.0,92,0.00,,,0.00,82.000000,,2013-04-16 13:42:00,
2013-04-16 09:52:00,53.0,51.0,-100.00,South,191,10.0,19.0,92,0.00,,,0.00,82.000000,,2013-04-16 13:52:00,
2013-04-16 10:02:00,53.0,51.0,-100.00,South,191,10.0,19.0,92,0.00,,,0.00,82.000000,,2013-04-16 14:02:00,
2013-04-16 10:32:00,54.0,51.0,-100.00,SSW,192,10.0,18.0,89,0.00,,,0.00,82.000000,,2013-04-16 14:32:00,
2013-04-16 10:42:00,54.0,51.0,-100.00,SSW,192,10.0,18.0,89,0.00,,,0.00,82.000000,,2013-04-16 14:42:00,
2013-04-16 10:52:00,54.0,51.0,-100.00,SSW,192,10.0,18.0,89,0.00,,,0.00,82.000000,,2013-04-16 14:52:00,
2013-04-16 11:02:00,54.0,51.0,-100.00,SSW,192,10.0,18.0,89,0.00,,,0.00,82.000000,,2013-04-16 15:02:00,
2013-04-16 11:33:00,54.0,53.0,-100.00,SSW,192,9.0,17.0,98,0.00,,,0.00,90.000000,,2013-04-16 15:33:00,
2013-04-16 11:43:00,54.0,53.0,-100.00,SSW,192,9.0,17.0,98,0.00,,,0.00,90.000000,,2013-04-16 15:43:00,
2013-04-16 11:53:00,54.0,53.0,-100.00,SSW,192,9.0,17.0,98,0.00,,,0.00,90.000000,,2013-04-16 15:53:00,
2013-04-16 12:03:00,54.0,53.0,-100.00,SSW,192,9.0,17.0,98,0.00,,,0.00,90.000000,,2013-04-16 16:03:00,
2013-04-16 12:33:00,56.0,54.0,-100.00,SSW,210,7.0,15.0,93,0.00,,,0.00,105.000000,,2013-04-16 16:33:00,
2013-04-16 12:42:00,56.0,54.0,-100.00,SSW,210,7.0,15.0,93,0.00,,,0.00,105.000000,,2013-04-16 16:42:00,
2013-04-16 12:53:00,56.0,54.0,-100.00,SSW,210,7.0,15.0,93,0.00,,,0.00,105.000000,,2013-04-16 16:53:00,
2013-04-16 13:02:00,56.0,54.0,-100.00,SSW,210,7.0,15.0,93,0.00,,,0.00,105.000000,,2013-04-16 17:02:00,
2013-04-16 13:33:00,61.0,55.0,-100.00,SW,229,7.0,13.0,82,0.00,,,0.00,184.000000,,2013-04-16 17:33:00,
2013-04-16 13:43:00,61.0,55.0,-100.00,SW,229,7.0,13.0,82,0.00,,,0.00,184.000000,,2013-04-16 17:43:00,
2013-04-16 13:53:00,61.0,55.0,-100.00,SW,229,7.0,13.0,82,0.00,,,0.00,184.000000,,2013-04-16 17:53:00,
2013-04-16 14:02:00,61.0,55.0,-100.00,SW,229,7.0,13.0,82,0.00,,,0.00,184.000000,,2013-04-16 18:02:00,
2013-04-16 14:32:00,62.0,56.0,-100.00,SW,236,6.0,14.0,82,0.00,,,0.00,148.000000,,2013-04-16 18:32:00,
2013-04-16 14:43:00,62.0,56.0,-100.00,SW,236,6.0,14.0,82,0.00,,,0.00,148.000000,,2013-04-16 18:43:00,
2013-04-16 14:52:00,62.0,56.0,-100.00,SW,236,6.0,14.0,82,0.00,,,0.00,148.000000,,2013-04-16 18:52:00,
2013-04-16 15:02:00,62.0,56.0,-100.00,SW,236,6.0,14.0,82,0.00,,,0.00,148.000000,,2013-04-16 19:02:00,
2013-04-16 15:32:00,68.0,55.0,-100.00,SSW,211,8.0,18.0,64,0.00,,,0.00,360.000000,,2013-04-16 19:32:00,
2013-04-16 15:43:00,68.0,55.0,-100.00,SSW,211,8.0,18.0,64,0.00,,,0.00,360.000000,,2013-04-16 19:43:00,
2013-04-16 15:52:00,68.0,55.0,-100.00,SSW,211,8.0,18.0,64,0.00,,,0.00,360.000000,,2013-04-16 19:52:00,
2013-04-16 16:02:00,68.0,55.0,-100.00,SSW,211,8.0,18.0,64,0.00,,,0.00,360.000000,,2013-04-16 20:02:00,
2013-04-16 16:32:00,67.0,55.0,-100.00,SSW,209,5.0,12.0,66,0.00,,,0.00,242.000000,,2013-04-16 20:32:00,
2013-04-16 16:42:00,67.0,55.0,-100.00,SSW,209,5.0,12.0,66,0.00,,,0.00,242.000000,,2013-04-16 20:42:00,
2013-04-16 16:52:00,67.0,55.0,-100.00,SSW,209,5.0,12.0,66,0.00,,,0.00,242.000000,,2013-04-16 20:52:00,
2013-04-16 17:02:00,67.0,55.0,-100.00,SSW,209,5.0,12.0,66,0.00,,,0.00,242.000000,,2013-04-16 21:02:00,
2013-04-16 17:33:00,70.0,54.0,-100.00,WSW,238,8.0,16.0,57,0.00,,,0.00,198.000000,,2013-04-16 21:33:00,
2013-04-16 17:43:00,70.0,54.0,-100.00,WSW,238,8.0,16.0,57,0.00,,,0.00,198.000000,,2013-04-16 21:43:00,
2013-04-16 17:53:00,70.0,54.0,-100.00,WSW,238,8.0,16.0,57,0.00,,,0.00,198.000000,,2013-04-16 21:53:00,
2013-04-16 18:03:00,70.0,54.0,-100.00,WSW,238,8.0,16.0,57,0.00,,,0.00,198.000000,,2013-04-16 22:03:00,
2013-04-16 18:33:00,69.0,52.0,-100.00,West,274,7.0,17.0,55,0.00,,,0.00,171.000000,,2013-04-16 22:33:00,
2013-04-16 18:43:00,69.0,52.0,-100.00,West,274,7.0,17.0,55,0.00,,,0.00,171.000000,,2013-04-16 22:43:00,
2013-04-16 18:52:00,69.0,52.0,-100.00,West,274,7.0,17.0,55,0.00,,,0.00,171.000000,,2013-04-16 22:52:00,
2013-04-16 19:02:00,69.0,52.0,-100.00,West,274,7.0,17.0,55,0.00,,,0.00,171.000000,,2013-04-16 23:02:00,
2013-04-16 19:32:00,68.0,53.0,-100.00,West,266,7.0,14.0,59,0.00,,,0.00,80.000000,,2013-04-16 23:32:00,
2013-04-16 19:43:00,68.0,53.0,-100.00,West,266,7.0,14.0,59,0.00,,,0.00,80.000000,,2013-04-16 23:43:00,
2013-04-16 19:52:00,68.0,53.0,-100.00,West,266,7.0,14.0,59,0.00,,,0.00,80.000000,,2013-04-16 23:52:00,
2013-04-16 20:02:00,68.0,53.0,-100.00,West,266,7.0,14.0,59,0.00,,,0.00,80.000000,,2013-04-17 00:02:00,
2013-04-16 20:32:00,67.0,54.0,-100.00,West,274,4.0,12.0,63,0.00,,,-99.99,10.000000,,2013-04-17 00:32:00,
2013-04-16 20:42:00,67.0,54.0,-100.00,West,274,4.0,12.0,63,0.00,,,-99.99,10.000000,,2013-04-17 00:42:00,
2013-04-16 20:52:00,67.0,54.0,-100.00,West,274,4.0,12.0,63,0.00,,,-99.99,10.000000,,2013-04-17 00:52:00,
2013-04-16 21:02:00,67.0,54.0,-100.00,West,274,4.0,12.0,63,0.00,,,-99.99,10.000000,,2013-04-17 01:02:00,
2013-04-16 21:32:00,58.0,54.0,-100.00,North,355,6.0,16.0,85,0.00,,,0.00,0.000000,,2013-04-17 01:32:00,
2013-04-16 21:42:00,58.0,54.0,-100.00,North,355,6.0,16.0,85,0.00,,,0.00,0.000000,,2013-04-17 01:42:00,
2013-04-16 21:52:00,58.0,54.0,-100.00,North,355,6.0,16.0,85,0.00,,,0.00,0.000000,,2013-04-17 01:52:00,
2013-04-16 22:02:00,58.0,54.0,-100.00,North,355,6.0,16.0,85,0.00,,,0.00,0.000000,,2013-04-17 02:02:00,
2013-04-16 22:32:00,56.0,52.0,-100.00,NW,324,6.0,15.0,85,0.02,,,0.02,0.000000,,2013-04-17 02:32:00,
2013-04-16 22:42:00,56.0,52.0,-100.00,NW,324,6.0,15.0,85,0.02,,,0.02,0.000000,,2013-04-17 02:42:00,
2013-04-16 22:52:00,56.0,52.0,-100.00,NW,324,6.0,15.0,85,0.02,,,0.02,0.000000,,2013-04-17 02:52:00,
2013-04-16 23:02:00,56.0,52.0,-100.00,NW,324,6.0,15.0,85,0.02,,,0.02,0.000000,,2013-04-17 03:02:00,
2013-04-16 23:33:00,53.0,53.0,-100.00,WNW,285,4.0,12.0,99,0.04,,,0.06,0.000000,,2013-04-17 03:33:00,
2013-04-16 23:42:00,53.0,53.0,-100.00,WNW,285,4.0,12.0,99,0.04,,,0.06,0.000000,,2013-04-17 03:42:00,
2013-04-16 23:53:00,53.0,53.0,-100.00,WNW,285,4.0,12.0,99,0.04,,,0.06,0.000000,,2013-04-17 03:53:00,